K22 EFHA-EFJY

Flight info

Callsign K22
Flight time 1h 18m
Altitude 2500
Route HIRLE PARKANO VIRRAT KEURUU RUOKE
Aircraft G115/L-SDGR/C

Departure

Time 2026-05-04 13:18
Airport Halli Airport (EFHA)

Arrival

Time 2026-05-04 14:36
Airport Jyväskylä Airport (EFJY)
Time Latitude Longitude Altitude Speed Heading
2026-05-04 13:10 61.85872 24.81565 488 ft 0 kts 90°
2026-05-04 13:12 61.85872 24.81566 488 ft 1 kts 91°
2026-05-04 13:12 61.85848 24.81555 488 ft 10 kts 239°
2026-05-04 13:12 61.85840 24.81355 488 ft 18 kts 269°
2026-05-04 13:12 61.85788 24.81117 488 ft 18 kts 215°
2026-05-04 13:13 61.85744 24.81064 489 ft 0 kts 209°
2026-05-04 13:13 61.85742 24.81063 489 ft 1 kts 208°
2026-05-04 13:13 61.85720 24.81043 489 ft 4 kts 201°
2026-05-04 13:13 61.85704 24.81030 489 ft 0 kts 197°
2026-05-04 13:15 61.85688 24.80999 484 ft 11 kts 241°
2026-05-04 13:15 61.85671 24.80881 491 ft 0 kts 265°
2026-05-04 13:16 61.85667 24.80719 490 ft 35 kts 266°
2026-05-04 13:17 61.85643 24.79988 601 ft 52 kts 256°
2026-05-04 13:17 61.85692 24.79110 679 ft 69 kts 277°
2026-05-04 13:17 61.85964 24.78089 796 ft 86 kts 298°
2026-05-04 13:17 61.86296 24.77058 1042 ft 87 kts 294°
2026-05-04 13:18 61.86592 24.75939 1282 ft 91 kts 292°
2026-05-04 13:18 61.86906 24.74718 1449 ft 95 kts 291°
2026-05-04 13:18 61.87189 24.73510 1752 ft 89 kts 290°
2026-05-04 13:18 61.87455 24.72290 1966 ft 96 kts 286°
2026-05-04 13:19 61.87727 24.71127 2280 ft 95 kts 292°
2026-05-04 13:19 61.87951 24.70243 2298 ft 110 kts 293°
2026-05-04 13:19 61.88561 24.68382 2383 ft 122 kts 296°
2026-05-04 13:19 61.88990 24.66788 2410 ft 126 kts 294°
2026-05-04 13:20 61.89408 24.65120 2440 ft 129 kts 292°
2026-05-04 13:20 61.89816 24.63451 2512 ft 127 kts 292°
2026-05-04 13:20 61.90215 24.61843 2694 ft 115 kts 291°
2026-05-04 13:20 61.90577 24.60290 2686 ft 124 kts 290°
2026-05-04 13:21 61.90962 24.58581 2294 ft 131 kts 292°
2026-05-04 13:21 61.91424 24.56847 1644 ft 130 kts 296°
2026-05-04 13:21 61.91874 24.55207 1244 ft 123 kts 295°
2026-05-04 13:21 61.92265 24.53726 1071 ft 114 kts 295°
2026-05-04 13:22 61.92693 24.52279 1040 ft 113 kts 293°
2026-05-04 13:22 61.93055 24.50816 1104 ft 110 kts 292°
2026-05-04 13:22 61.93411 24.49401 1140 ft 109 kts 293°
2026-05-04 13:22 61.93826 24.48038 1211 ft 112 kts 301°
2026-05-04 13:23 61.94262 24.46643 1258 ft 111 kts 297°
2026-05-04 13:23 61.94716 24.45280 1289 ft 112 kts 298°
2026-05-04 13:23 61.95017 24.44410 1342 ft 110 kts 298°
2026-05-04 13:23 61.95384 24.42982 1482 ft 111 kts 288°
2026-05-04 13:24 61.95696 24.41317 1271 ft 129 kts 288°
2026-05-04 13:24 61.96079 24.39556 1193 ft 129 kts 290°
2026-05-04 13:24 61.96486 24.37860 1160 ft 129 kts 295°
2026-05-04 13:25 61.97368 24.34706 1292 ft 119 kts 300°
2026-05-04 13:25 61.97840 24.33313 1559 ft 115 kts 301°
2026-05-04 13:25 61.98317 24.31943 1769 ft 114 kts 297°
2026-05-04 13:25 61.98468 24.30468 1902 ft 107 kts 256°
2026-05-04 13:26 61.98351 24.28828 1888 ft 118 kts 257°
2026-05-04 13:26 61.98224 24.27033 1848 ft 127 kts 258°
2026-05-04 13:26 61.98124 24.25138 1810 ft 129 kts 261°
2026-05-04 13:26 61.98016 24.23203 1488 ft 141 kts 259°
2026-05-04 13:27 61.97916 24.21119 1258 ft 144 kts 264°
2026-05-04 13:27 61.97808 24.19031 1066 ft 141 kts 257°
2026-05-04 13:27 61.97549 24.17087 955 ft 135 kts 242°
2026-05-04 13:27 61.97084 24.15400 925 ft 131 kts 236°
2026-05-04 13:28 61.96621 24.13793 888 ft 126 kts 236°
2026-05-04 13:28 61.96145 24.12182 791 ft 131 kts 238°
2026-05-04 13:28 61.95693 24.10452 668 ft 133 kts 238°
2026-05-04 13:28 61.95408 24.08638 643 ft 129 kts 259°
2026-05-04 13:29 61.95527 24.06742 667 ft 126 kts 304°
2026-05-04 13:29 61.96238 24.05815 805 ft 122 kts 291°
2026-05-04 13:29 61.96077 24.04135 735 ft 124 kts 243°
2026-05-04 13:29 61.95719 24.02579 806 ft 120 kts 236°
2026-05-04 13:30 61.95232 24.01030 679 ft 127 kts 237°
2026-05-04 13:30 61.95253 23.99265 833 ft 124 kts 291°
2026-05-04 13:30 61.95882 23.98024 995 ft 120 kts 329°
2026-05-04 13:30 61.96694 23.97551 1086 ft 123 kts 322°
2026-05-04 13:31 61.97220 23.96294 1238 ft 114 kts 293°
2026-05-04 13:31 61.97541 23.94775 1498 ft 103 kts 291°
2026-05-04 13:31 61.97857 23.93334 1575 ft 119 kts 291°
2026-05-04 13:31 61.98030 23.91564 1601 ft 122 kts 268°
2026-05-04 13:32 61.98049 23.89728 1566 ft 121 kts 265°
2026-05-04 13:32 61.98047 23.87848 1385 ft 132 kts 269°
2026-05-04 13:32 61.98190 23.85985 1446 ft 125 kts 275°
2026-05-04 13:32 61.98299 23.84134 1462 ft 126 kts 271°
2026-05-04 13:33 61.98352 23.82292 1559 ft 122 kts 268°
2026-05-04 13:33 61.98396 23.80467 1573 ft 125 kts 269°
2026-05-04 13:33 61.98428 23.78570 1535 ft 128 kts 269°
2026-05-04 13:33 61.98447 23.76656 1515 ft 128 kts 268°
2026-05-04 13:34 61.98436 23.74793 1591 ft 125 kts 262°
2026-05-04 13:34 61.98340 23.73003 1736 ft 117 kts 261°
2026-05-04 13:34 61.98293 23.71208 1764 ft 126 kts 265°
2026-05-04 13:34 61.98245 23.69288 1616 ft 136 kts 262°
2026-05-04 13:35 61.98152 23.67219 1405 ft 140 kts 263°
2026-05-04 13:35 61.98258 23.63139 1102 ft 136 kts 274°
2026-05-04 13:35 61.98442 23.61248 1186 ft 127 kts 292°
2026-05-04 13:36 61.98832 23.59688 1354 ft 114 kts 285°
2026-05-04 13:36 61.99052 23.57914 1156 ft 134 kts 268°
2026-05-04 13:36 61.99075 23.55960 1242 ft 104 kts 276°
2026-05-04 13:36 61.99230 23.54508 1348 ft 107 kts 282°
2026-05-04 13:37 61.99574 23.52898 1179 ft 132 kts 302°
2026-05-04 13:37 62.00094 23.51240 1128 ft 135 kts 300°
2026-05-04 13:37 62.00643 23.49770 1183 ft 125 kts 301°
2026-05-04 13:37 62.01152 23.48271 1256 ft 126 kts 302°
2026-05-04 13:38 62.01565 23.46608 1208 ft 129 kts 278°
2026-05-04 13:38 62.01712 23.44748 1235 ft 118 kts 275°
2026-05-04 13:38 62.01812 23.43135 1117 ft 115 kts 269°
2026-05-04 13:38 62.01727 23.41371 1109 ft 123 kts 245°
2026-05-04 13:39 62.01353 23.39704 1070 ft 125 kts 245°
2026-05-04 13:39 62.01077 23.37963 1127 ft 126 kts 254°
2026-05-04 13:39 62.00899 23.36112 1191 ft 121 kts 266°
2026-05-04 13:39 62.00808 23.34299 1038 ft 114 kts 258°
2026-05-04 13:40 62.00664 23.32703 941 ft 116 kts 255°
2026-05-04 13:40 62.00560 23.31010 987 ft 115 kts 267°
2026-05-04 13:40 62.00656 23.29257 927 ft 125 kts 277°
2026-05-04 13:40 62.00805 23.27558 1256 ft 104 kts 276°
2026-05-04 13:41 62.00928 23.26037 1408 ft 111 kts 275°
2026-05-04 13:41 62.01055 23.24377 1472 ft 118 kts 275°
2026-05-04 13:41 62.00748 23.22765 1330 ft 127 kts 232°
2026-05-04 13:42 62.00056 23.19340 1128 ft 121 kts 267°
2026-05-04 13:42 61.99970 23.17857 1352 ft 109 kts 244°
2026-05-04 13:42 61.99549 23.16305 1190 ft 122 kts 238°
2026-05-04 13:42 61.99373 23.14473 965 ft 135 kts 269°
2026-05-04 13:43 61.99458 23.12449 813 ft 138 kts 272°
2026-05-04 13:43 61.99642 23.10519 847 ft 135 kts 294°
2026-05-04 13:43 62.00036 23.08744 877 ft 132 kts 292°
2026-05-04 13:43 62.00410 23.07008 933 ft 128 kts 288°
2026-05-04 13:44 62.00763 23.05264 1048 ft 129 kts 287°
2026-05-04 13:44 62.01022 23.03509 1210 ft 125 kts 285°
2026-05-04 13:44 62.01410 23.01769 1187 ft 132 kts 291°
2026-05-04 13:44 62.01767 22.99982 1238 ft 130 kts 284°
2026-05-04 13:45 62.01295 22.98737 1136 ft 134 kts 184°
2026-05-04 13:45 62.00666 22.99994 1181 ft 148 kts 92°
2026-05-04 13:45 62.01258 23.01668 1077 ft 148 kts 359°
2026-05-04 13:45 62.01760 23.00175 952 ft 138 kts 268°
2026-05-04 13:46 62.01239 22.99026 1138 ft 126 kts 167°
2026-05-04 13:46 62.00910 23.00775 1049 ft 152 kts 75°
2026-05-04 13:46 62.01468 23.02677 996 ft 153 kts 51°
2026-05-04 13:46 62.02107 23.04468 946 ft 147 kts 62°
2026-05-04 13:47 62.02049 23.06480 910 ft 143 kts 115°
2026-05-04 13:47 62.01668 23.08267 1214 ft 129 kts 120°
2026-05-04 13:47 62.01555 23.10214 1164 ft 146 kts 93°
2026-05-04 13:47 62.01614 23.12390 1157 ft 147 kts 83°
2026-05-04 13:48 62.01885 23.14453 1225 ft 143 kts 76°
2026-05-04 13:48 62.01939 23.16525 1214 ft 140 kts 105°
2026-05-04 13:48 62.01671 23.18555 979 ft 149 kts 100°
2026-05-04 13:48 62.01914 23.20695 901 ft 148 kts 63°
2026-05-04 13:49 62.02197 23.22737 945 ft 143 kts 84°
2026-05-04 13:49 62.02456 23.24660 1013 ft 139 kts 58°
2026-05-04 13:49 62.02858 23.26531 1026 ft 136 kts 83°
2026-05-04 13:49 62.02981 23.28538 1018 ft 137 kts 89°
2026-05-04 13:50 62.02873 23.30581 957 ft 143 kts 98°
2026-05-04 13:50 62.03237 23.32483 1027 ft 145 kts 46°
2026-05-04 13:50 62.03994 23.33914 1042 ft 147 kts 38°
2026-05-04 13:50 62.04777 23.35299 1125 ft 142 kts 38°
2026-05-04 13:51 62.05530 23.36645 1210 ft 142 kts 38°
2026-05-04 13:51 62.06299 23.37980 1268 ft 144 kts 47°
2026-05-04 13:51 62.07007 23.39542 1301 ft 145 kts 40°
2026-05-04 13:51 62.07695 23.40855 1682 ft 128 kts 41°
2026-05-04 13:52 62.09067 23.43560 1893 ft 141 kts 42°
2026-05-04 13:52 62.09771 23.45067 1938 ft 144 kts 45°
2026-05-04 13:52 62.10488 23.46625 1944 ft 148 kts 46°
2026-05-04 13:53 62.11214 23.48220 1949 ft 152 kts 44°
2026-05-04 13:53 62.11957 23.49787 2003 ft 149 kts 44°
2026-05-04 13:53 62.12687 23.51324 2035 ft 149 kts 44°
2026-05-04 13:54 62.13987 23.54738 2127 ft 150 kts 57°
2026-05-04 13:54 62.14536 23.56482 2216 ft 126 kts 54°
2026-05-04 13:54 62.15339 23.60400 1636 ft 148 kts 68°
2026-05-04 13:55 62.15885 23.62246 1289 ft 153 kts 51°
2026-05-04 13:55 62.17194 23.65598 1491 ft 143 kts 49°
2026-05-04 13:55 62.17844 23.67132 1636 ft 138 kts 49°
2026-05-04 13:56 62.18488 23.68675 1700 ft 140 kts 48°
2026-05-04 13:56 62.19111 23.70240 1809 ft 139 kts 52°
2026-05-04 13:56 62.20254 23.73623 1832 ft 148 kts 76°
2026-05-04 13:57 62.20558 23.75660 1962 ft 139 kts 71°
2026-05-04 13:57 62.20924 23.77631 1958 ft 146 kts 69°
2026-05-04 13:58 62.22164 23.83709 1955 ft 148 kts 68°
2026-05-04 13:58 62.22399 23.87935 1817 ft 153 kts 100°
2026-05-04 13:58 62.22328 23.90222 1825 ft 148 kts 95°
2026-05-04 13:59 62.22297 23.92400 1819 ft 150 kts 95°
2026-05-04 13:59 62.22259 23.94724 1270 ft 164 kts 97°
2026-05-04 13:59 62.21994 23.99090 1070 ft 124 kts 96°
2026-05-04 14:00 62.21983 24.01076 1076 ft 136 kts 91°
2026-05-04 14:00 62.21878 24.05114 1336 ft 132 kts 94°
2026-05-04 14:00 62.21821 24.07119 1443 ft 133 kts 98°
2026-05-04 14:01 62.21766 24.09146 1497 ft 138 kts 95°
2026-05-04 14:01 62.21695 24.11365 1168 ft 155 kts 99°
2026-05-04 14:01 62.21524 24.16031 676 ft 157 kts 97°
2026-05-04 14:02 62.21409 24.18277 601 ft 144 kts 126°
2026-05-04 14:02 62.21230 24.20220 836 ft 122 kts 96°
2026-05-04 14:02 62.21165 24.22061 896 ft 126 kts 97°
2026-05-04 14:02 62.21125 24.24017 962 ft 134 kts 95°
2026-05-04 14:03 62.21109 24.26014 1029 ft 133 kts 97°
2026-05-04 14:03 62.20938 24.28016 977 ft 142 kts 102°
2026-05-04 14:03 62.20838 24.30134 950 ft 140 kts 98°
2026-05-04 14:03 62.20715 24.32226 934 ft 142 kts 102°
2026-05-04 14:04 62.20480 24.36296 1125 ft 130 kts 102°
2026-05-04 14:04 62.20433 24.38248 1097 ft 143 kts 80°
2026-05-04 14:04 62.20660 24.39973 1157 ft 103 kts 73°
2026-05-04 14:05 62.21042 24.43117 1461 ft 116 kts 71°
2026-05-04 14:05 62.21330 24.44848 1578 ft 130 kts 76°
2026-05-04 14:05 62.21554 24.46726 1491 ft 135 kts 82°
2026-05-04 14:06 62.21784 24.48771 1467 ft 146 kts 81°
2026-05-04 14:06 62.22025 24.50764 1458 ft 122 kts 79°
2026-05-04 14:06 62.22295 24.52287 1362 ft 102 kts 68°
2026-05-04 14:06 62.22619 24.53633 1327 ft 107 kts 65°
2026-05-04 14:07 62.22933 24.55108 1403 ft 108 kts 69°
2026-05-04 14:07 62.23238 24.56625 1496 ft 117 kts 74°
2026-05-04 14:07 62.23504 24.58304 1665 ft 120 kts 76°
2026-05-04 14:07 62.23718 24.60086 1815 ft 125 kts 78°
2026-05-04 14:08 62.23906 24.61939 1935 ft 131 kts 85°
2026-05-04 14:08 62.24059 24.63929 2011 ft 138 kts 82°
2026-05-04 14:08 62.24259 24.65942 2131 ft 135 kts 81°
2026-05-04 14:08 62.24488 24.67920 2246 ft 137 kts 80°
2026-05-04 14:09 62.24839 24.71805 2549 ft 133 kts 84°
2026-05-04 14:09 62.24970 24.73758 2233 ft 96 kts 86°
2026-05-04 14:10 62.25749 24.77467 1850 ft 131 kts 327°
2026-05-04 14:10 62.26016 24.75781 1688 ft 120 kts 269°
2026-05-04 14:10 62.26034 24.73980 1497 ft 126 kts 265°
2026-05-04 14:10 62.26022 24.72699 1365 ft 131 kts 259°
2026-05-04 14:11 62.25702 24.70871 1189 ft 129 kts 230°
2026-05-04 14:11 62.25052 24.73704 1323 ft 150 kts 98°
2026-05-04 14:11 62.24901 24.75868 1328 ft 143 kts 107°
2026-05-04 14:12 62.24708 24.77765 1285 ft 115 kts 102°
2026-05-04 14:12 62.24608 24.79454 1210 ft 121 kts 105°
2026-05-04 14:12 62.24460 24.82843 1506 ft 112 kts 118°
2026-05-04 14:13 62.24152 24.84491 1608 ft 120 kts 113°
2026-05-04 14:13 62.23893 24.86276 1729 ft 127 kts 110°
2026-05-04 14:13 62.23714 24.88241 1500 ft 129 kts 131°
2026-05-04 14:13 62.23032 24.89355 1615 ft 124 kts 149°
2026-05-04 14:14 62.23341 24.89656 1224 ft 126 kts
2026-05-04 14:14 62.23180 24.90829 895 ft 143 kts 109°
2026-05-04 14:14 62.23222 24.92905 1080 ft 132 kts 81°
2026-05-04 14:15 62.23191 24.96294 1265 ft 84 kts 114°
2026-05-04 14:15 62.23374 24.99367 1274 ft 115 kts 70°
2026-05-04 14:16 62.23836 25.03103 1271 ft 139 kts 91°
2026-05-04 14:16 62.23864 25.05180 1330 ft 138 kts 92°
2026-05-04 14:17 62.23793 25.09249 1551 ft 137 kts 99°
2026-05-04 14:17 62.23714 25.11287 1614 ft 138 kts 98°
2026-05-04 14:17 62.23529 25.15461 1683 ft 141 kts 100°
2026-05-04 14:18 62.23543 25.17609 1640 ft 149 kts 89°
2026-05-04 14:18 62.23921 25.19085 1806 ft 83 kts 270°
2026-05-04 14:19 62.23756 25.20269 1256 ft 136 kts 87°
2026-05-04 14:19 62.24061 25.22325 1115 ft 149 kts 79°
2026-05-04 14:19 62.24125 25.24506 1149 ft 146 kts 94°
2026-05-04 14:19 62.24167 25.26612 1349 ft 125 kts 60°
2026-05-04 14:20 62.24055 25.26830 1365 ft 128 kts 112°
2026-05-04 14:20 62.23954 25.28881 1295 ft 142 kts 99°
2026-05-04 14:20 62.24213 25.28988 1481 ft 99 kts 206°
2026-05-04 14:21 62.24067 25.32655 1163 ft 144 kts 73°
2026-05-04 14:21 62.24126 25.32768 1118 ft 117 kts 110°
2026-05-04 14:21 62.24448 25.34648 1079 ft 139 kts 68°
2026-05-04 14:21 62.24693 25.36598 1158 ft 135 kts 95°
2026-05-04 14:22 62.24463 25.38541 1301 ft 133 kts 115°
2026-05-04 14:22 62.24250 25.40487 1440 ft 137 kts 106°
2026-05-04 14:22 62.24134 25.42509 1515 ft 136 kts 96°
2026-05-04 14:22 62.24109 25.44564 1511 ft 141 kts 92°
2026-05-04 14:23 62.24138 25.48910 1331 ft 143 kts 93°
2026-05-04 14:23 62.24171 25.50976 1438 ft 137 kts 91°
2026-05-04 14:23 62.24209 25.53036 1483 ft 140 kts 90°
2026-05-04 14:24 62.24232 25.55092 1550 ft 129 kts 92°
2026-05-04 14:24 62.24261 25.57002 1345 ft 129 kts 93°
2026-05-04 14:24 62.24279 25.58904 1059 ft 124 kts 89°
2026-05-04 14:24 62.24264 25.60726 977 ft 119 kts 95°
2026-05-04 14:25 62.24268 25.62412 1056 ft 110 kts 84°
2026-05-04 14:25 62.24906 25.65328 1252 ft 115 kts 58°
2026-05-04 14:25 62.25353 25.66845 1332 ft 121 kts 60°
2026-05-04 14:26 62.25758 25.68281 1314 ft 106 kts 59°
2026-05-04 14:26 62.26237 25.69545 1364 ft 117 kts 40°
2026-05-04 14:26 62.26967 25.70438 1401 ft 127 kts 24°
2026-05-04 14:26 62.27776 25.71346 1500 ft 133 kts 27°
2026-05-04 14:27 62.28573 25.72279 1693 ft 131 kts 25°
2026-05-04 14:27 62.29407 25.73026 1745 ft 139 kts 17°
2026-05-04 14:27 62.30300 25.73827 1608 ft 131 kts 33°
2026-05-04 14:27 62.30858 25.75203 1376 ft 118 kts 62°
2026-05-04 14:28 62.31301 25.76610 1215 ft 110 kts 46°
2026-05-04 14:28 62.31885 25.77466 1241 ft 97 kts 20°
2026-05-04 14:28 62.32540 25.77875 1288 ft 97 kts
2026-05-04 14:28 62.33232 25.78003 1330 ft 101 kts 355°
2026-05-04 14:29 62.34499 25.77891 1283 ft 92 kts 338°
2026-05-04 14:29 62.35717 25.76934 1198 ft 88 kts 323°
2026-05-04 14:30 62.36212 25.76219 1147 ft 85 kts 307°
2026-05-04 14:30 62.36608 25.75333 1107 ft 82 kts 300°
2026-05-04 14:30 62.37444 25.73422 966 ft 91 kts 307°
2026-05-04 14:31 62.37875 25.72470 1027 ft 81 kts 309°
2026-05-04 14:31 62.38577 25.70875 1299 ft 76 kts 304°
2026-05-04 14:32 62.39431 25.68957 1717 ft 97 kts 308°
2026-05-04 14:32 62.39863 25.67828 1770 ft 99 kts 308°
2026-05-04 14:32 62.40398 25.66789 1535 ft 104 kts 313°
2026-05-04 14:32 62.40908 25.65829 1389 ft 91 kts 300°
2026-05-04 14:33 62.40939 25.64560 1211 ft 88 kts 243°
2026-05-04 14:33 62.40490 25.63855 1082 ft 89 kts 192°
2026-05-04 14:33 62.39892 25.64155 1003 ft 91 kts 149°
2026-05-04 14:33 62.39449 25.65058 1005 ft 81 kts 138°
2026-05-04 14:34 62.39068 25.66128 897 ft 102 kts 138°
2026-05-04 14:34 62.38593 25.67185 844 ft 94 kts 146°
2026-05-04 14:34 62.38173 25.68271 882 ft 95 kts 133°
2026-05-04 14:34 62.37805 25.69460 933 ft 101 kts 103°
2026-05-04 14:35 62.38250 25.70410 745 ft 98 kts 360°
2026-05-04 14:35 62.38899 25.70060 536 ft 97 kts 322°
2026-05-04 14:35 62.39353 25.69151 453 ft 79 kts 309°
2026-05-04 14:35 62.39675 25.68432 451 ft 53 kts 308°
2026-05-04 14:36 62.39867 25.67993 459 ft 36 kts 311°
2026-05-04 14:36 62.40042 25.67570 461 ft 35 kts 307°
2026-05-04 14:36 62.40059 25.67384 465 ft 2 kts 223°
2026-05-04 14:36 62.40016 25.67300 465 ft 16 kts 222°
2026-05-04 14:37 62.40004 25.67121 466 ft 11 kts 322°
2026-05-04 14:37 62.40051 25.67021 468 ft 13 kts 313°
2026-05-04 14:37 62.40135 25.66832 470 ft 8 kts 314°
2026-05-04 14:37 62.40180 25.66730 471 ft 9 kts 313°
2026-05-04 14:38 62.40224 25.66634 472 ft 7 kts 316°
2026-05-04 14:38 62.40307 25.66448 475 ft 23 kts 313°
2026-05-04 14:38 62.40394 25.66255 477 ft 8 kts 314°
2026-05-04 14:38 62.40408 25.66184 474 ft 8 kts 230°
2026-05-04 14:39 62.40318 25.65999 478 ft 20 kts 223°
2026-05-04 14:39 62.40297 25.65805 476 ft 9 kts 291°
2026-05-04 14:39 62.40321 25.65659 480 ft 11 kts 288°
2026-05-04 14:40 62.40253 25.65670 479 ft 6 kts 163°
2026-05-04 14:40 62.40217 25.65628 479 ft 9 kts 234°
2026-05-04 14:40 62.40198 25.65589 479 ft 5 kts 197°
2026-05-04 14:40 62.40173 25.65607 476 ft 10 kts 106°
2026-05-04 14:41 62.40183 25.65692 475 ft 0 kts 43°